{"data":{"norad_id":58211,"intl_designator":"2023-170F","name":"STARLINK-30838","alt_names":[],"object_type":"PAYLOAD","status":"ACTIVE","operator":null,"country":"US","launch_date":"2023-11-03","launch_site_code":"AFETR","launch_vehicle":null,"mission":null,"orbit_class":"UNKNOWN","rcs_meters":null,"size_class":null,"mass_kg":null,"dimensions":null,"purposes":["comms"],"wikipedia_slug":null,"has_3d_model":false,"image_url":null,"decayed_at":null,"tle_current":{"epoch":"2026-09-20T19:35:37.695264Z","epoch_age_seconds":116270,"freshness":"FRESH","line1":"1 58211U 23170F   26263.81640851  .00000257  00000+0  18873-4 0  9996","line2":"2 58211  43.0031 172.0785 0001698 263.5030  96.5628 15.27576892160143","mean_motion":15.27576892,"eccentricity":0.0001698,"inclination_deg":43.0031,"raan_deg":172.0785,"arg_perigee_deg":263.503,"mean_anomaly_deg":96.5628,"bstar":1.8873e-5,"rev_number":16014,"period_min":94.266940508288,"perigee_km":481.89337154618,"apogee_km":484.22343350488,"semimajor_km":6861.1954025255,"source":"CELESTRAK","updated_at":"2026-09-21T09:00:33.831997Z"}}}